This demonstration page uses our WeatherBlox Daily Observations layout. Learn more.

Left ArrowRight Arrow

Hourly Observations for April 15, 2018

Temp ( °F °C ) Dew Point ( °F °C ) Humidity (%) Winds ( mph kmh ) Pressure ( in mb ) Visibility ( mi km ) Precip ( " mm )
12:53 am 00:53 Cloudy 23 -5 19 -7.2 85 85 N 17 28 30.16 1021 10 16 0.00 0.00
1:53 am 01:53 Windy with Snow Likely 23 -5 19 -7.2 85 85 N 21 33 30.15 1021 9 14 0.00 0.03
2:53 am 02:53 Cloudy with Light Snow 23 -5 20 -6.7 88 88 NNW 18 30 30.15 1021 9 14 0.00 0.03
3:53 am 03:53 Windy with Snow Likely 23 -5 20 -6.7 88 88 N 21 33 30.15 1021 10 16 0.00 0.03
4:53 am 04:53 Cloudy 23 -5 19 -7.2 85 85 N 21 33 30.15 1021 10 16 0.00 0.03
5:53 am 05:53 Cloudy 24 -4.4 19 -7.2 81 81 NNW 18 30 30.16 1022 9 14 0.00 0.03
6:53 am 06:53 Cloudy 21 -6.1 17 -8.3 85 85 NW 21 33 30.19 1022 10 16 0.00 0.00
7:53 am 07:53 Cloudy 21 -6.1 17 -8.3 85 85 NNW 20 31 30.22 1023 10 16 0.00 0.03
8:53 am 08:53 Cloudy 23 -5 18 -7.8 81 81 NNW 31 50 30.22 1023 10 16 0.00 0.00
9:53 am 09:53 Cloudy 24 -4.4 18 -7.8 77 77 N 23 37 30.23 1024 10 16 0.00 0.00
10:53 am 10:53 Cloudy 25 -3.9 19 -7.2 78 78 N 29 46 30.23 1024 10 16 0.00 0.00
11:53 am 11:53 Cloudy 27 -2.8 21 -6.1 78 78 N 26 43 30.24 1024 10 16 0.00 0.00
12:53 pm 12:53 Cloudy 26 -3.3 21 -6.1 81 81 NNW 25 41 30.25 1025 10 16 0.00 0.00
1:53 pm 13:53 Cloudy 28 -2.2 22 -5.6 78 78 NNW 23 37 30.24 1024 10 16 0.00 0.00
2:53 pm 14:53 Cloudy 28 -2.2 22 -5.6 78 78 NNW 22 35 30.24 1024 10 16 0.00 0.00
3:53 pm 15:53 Cloudy 30 -1.1 23 -5 75 75 N 23 37 30.23 1024 10 16 0.00 0.00
4:53 pm 16:53 Cloudy 31 -0.6 24 -4.4 76 76 N 18 30 30.22 1023 10 16 0.00 0.00
5:53 pm 17:53 Mostly Cloudy 31 -0.6 24 -4.4 76 76 NNW 21 33 30.22 1023 10 16 0.00 0.00
6:53 pm 18:53 Cloudy 30 -1.1 23 -5 75 75 NNW 21 33 30.22 1024 10 16 0.00 0.00
7:53 pm 19:53 Cloudy 29 -1.7 23 -5 78 78 N 21 33 30.24 1024 10 16 0.00 0.00
8:53 pm 20:53 Cloudy 29 -1.7 23 -5 78 78 NNW 16 26 30.26 1025 10 16 0.00 0.00
9:53 pm 21:53 Cloudy 28 -2.2 23 -5 81 81 NNW 17 28 30.26 1025 10 16 0.00 0.00
10:53 pm 22:53 Cloudy 28 -2.2 23 -5 81 81 N 15 24 30.27 1025 10 16 0.00 0.00
11:53 pm 23:53 Cloudy 28 -2.2 23 -5 81 81 N 14 22 30.26 1025 10 16 0.00 0.00

Powered by AerisWeather